"datetime","temp","dp","rain_mm","uv","solar","mb","wind_mph","gust_mph","windchill","rh"
"2014-01-22 00:00:00",5.8,5.4,0.0,0.0,0,1004.6,1,5,"",97
"2014-01-22 00:01:00",5.8,5.4,0.0,0.0,0,1004.6,1,3,"",97
"2014-01-22 00:02:00",5.8,5.4,0.0,0.0,0,1004.6,1,1,"",97
"2014-01-22 00:03:00",5.8,5.4,0.0,0.0,0,1004.6,1,5,"",97
"2014-01-22 00:04:00",5.8,5.4,0.0,0.0,0,1004.6,2,1,"",97
"2014-01-22 00:05:00",5.8,5.4,0.0,0.0,0,1004.6,1,0,"",97
"2014-01-22 00:06:00",5.8,5.4,0.0,0.0,0,1004.6,0,1,"",97
"2014-01-22 00:07:00",5.8,5.4,0.0,0.0,0,1004.6,1,3,"",97
"2014-01-22 00:08:00",5.8,5.4,0.0,0.0,0,1004.6,2,3,"",97
"2014-01-22 00:09:00",5.8,5.4,0.0,0.0,0,1004.5,1,1,"",97
"2014-01-22 00:10:00",5.8,5.4,0.0,0.0,0,1004.5,1,1,"",97
"2014-01-22 00:11:00",5.9,5.4,0.0,0.0,0,1004.5,1,1,"",97
"2014-01-22 00:12:00",5.8,5.4,0.0,0.0,0,1004.5,1,3,"",97
"2014-01-22 00:13:00",5.9,5.4,0.0,0.0,0,1004.5,1,3,"",97
"2014-01-22 00:14:00",5.9,5.4,0.0,0.0,0,1004.4,1,3,"",97
"2014-01-22 00:15:00",5.8,5.6,0.2,0.0,0,1004.4,2,3,"",99
"2014-01-22 00:16:00",5.8,5.6,0.2,0.0,0,1004.4,1,3,"",99
"2014-01-22 00:17:00",5.9,5.6,0.2,0.0,0,1004.4,1,3,"",98
"2014-01-22 00:18:00",5.9,5.6,0.2,0.0,0,1004.4,2,3,"",98
"2014-01-22 00:19:00",5.9,5.6,0.2,0.0,0,1004.4,1,5,"",98
"2014-01-22 00:20:00",5.9,5.6,0.2,0.0,0,1004.4,2,3,"",98
"2014-01-22 00:21:00",5.9,5.6,0.2,0.0,0,1004.4,2,3,"",98
"2014-01-22 00:22:00",5.9,5.6,0.2,0.0,0,1004.4,1,5,"",98
"2014-01-22 00:23:00",5.9,5.6,0.2,0.0,0,1004.4,2,3,"",98
"2014-01-22 00:24:00",5.9,5.6,0.2,0.0,0,1004.3,1,1,"",98
"2014-01-22 00:25:00",5.9,5.6,0.2,0.0,0,1004.3,1,3,"",98
"2014-01-22 00:26:00",5.9,5.6,0.2,0.0,0,1004.3,2,5,"",98
"2014-01-22 00:27:00",5.9,5.6,0.2,0.0,0,1004.3,1,1,"",98
"2014-01-22 00:28:00",5.9,5.6,0.2,0.0,0,1004.3,1,3,"",98
"2014-01-22 00:29:00",5.9,5.6,0.2,0.0,0,1004.3,2,3,"",98
"2014-01-22 00:30:00",5.9,5.6,0.2,0.0,0,1004.3,2,3,"",98
"2014-01-22 00:31:00",5.9,5.6,0.4,0.0,0,1004.3,2,3,"",98
"2014-01-22 00:32:00",5.9,5.6,0.4,0.0,0,1004.3,1,3,"",98
"2014-01-22 00:33:00",5.9,5.6,0.4,0.0,0,1004.3,1,3,"",98
"2014-01-22 00:34:00",5.9,5.7,0.4,0.0,0,1004.2,1,5,"",99
"2014-01-22 00:35:00",5.9,5.7,0.4,0.0,0,1004.2,2,5,"",99
"2014-01-22 00:36:00",5.9,5.7,0.4,0.0,0,1004.2,2,5,"",99
"2014-01-22 00:37:00",5.9,5.7,0.4,0.0,0,1004.2,2,5,"",99
"2014-01-22 00:38:00",5.9,5.7,0.4,0.0,0,1004.2,2,1,"",99
"2014-01-22 00:39:00",5.9,5.7,0.4,0.0,0,1004.2,1,1,"",99
"2014-01-22 00:40:00",5.9,5.7,0.4,0.0,0,1004.1,1,3,"",99
"2014-01-22 00:41:00",5.9,5.7,0.4,0.0,0,1004.1,1,1,"",99
"2014-01-22 00:42:00",6.0,5.7,0.4,0.0,0,1004.1,1,1,"",98
"2014-01-22 00:43:00",6.0,5.7,0.4,0.0,0,1004.1,1,1,"",98
"2014-01-22 00:44:00",6.0,5.7,0.4,0.0,0,1004.1,1,3,"",98
"2014-01-22 00:45:00",6.0,5.7,0.4,0.0,0,1004.1,2,5,"",98
"2014-01-22 00:46:00",6.0,5.7,0.4,0.0,0,1004.1,2,5,"",98
"2014-01-22 00:47:00",6.0,5.7,0.4,0.0,0,1004.1,1,0,"",98
"2014-01-22 00:48:00",6.0,5.7,0.4,0.0,0,1004.1,0,0,"",98
"2014-01-22 00:49:00",6.0,5.7,0.4,0.0,0,1004.1,0,3,"",98
"2014-01-22 00:50:00",6.0,5.7,0.4,0.0,0,1004.1,2,5,"",98
"2014-01-22 00:51:00",6.0,5.7,0.4,0.0,0,1004.1,2,3,"",98
"2014-01-22 00:52:00",6.0,5.7,0.4,0.0,0,1004.1,3,5,"",98
"2014-01-22 00:53:00",6.1,5.8,0.4,0.0,0,1004.1,2,3,"",98
"2014-01-22 00:54:00",6.1,5.8,0.4,0.0,0,1004.1,1,5,"",98
"2014-01-22 00:55:00",6.1,5.8,0.4,0.0,0,1004.0,3,3,"",98
"2014-01-22 00:56:00",6.1,5.8,0.6,0.0,0,1004.1,1,3,"",98
"2014-01-22 00:57:00",6.1,5.8,0.6,0.0,0,1004.1,1,1,"",98
"2014-01-22 00:58:00",6.1,5.8,0.6,0.0,0,1004.1,1,7,"",98
"2014-01-22 00:59:00",6.1,5.8,0.6,0.0,0,1004.1,2,3,"",98
"2014-01-22 01:00:00",6.1,5.8,0.6,0.0,0,1004.0,2,7,"",98
"2014-01-22 01:01:00",6.1,5.8,0.6,0.0,0,1004.0,2,3,"",98
"2014-01-22 01:02:00",6.1,5.8,0.8,0.0,0,1004.1,1,5,"",98
"2014-01-22 01:03:00",6.1,5.8,0.8,0.0,0,1004.1,2,5,"",98
"2014-01-22 01:04:00",6.1,5.8,0.8,0.0,0,1004.0,1,3,"",98
"2014-01-22 01:05:00",6.1,5.9,0.8,0.0,0,1004.0,1,3,"",99
"2014-01-22 01:06:00",6.2,5.9,0.8,0.0,0,1004.0,2,3,"",98
"2014-01-22 01:07:00",6.2,5.9,0.8,0.0,0,1004.0,1,1,"",98
"2014-01-22 01:08:00",6.2,5.9,0.8,0.0,0,1004.0,0,3,"",98
"2014-01-22 01:09:00",6.2,5.9,0.8,0.0,0,1004.0,1,3,"",98
"2014-01-22 01:10:00",6.2,5.9,1.0,0.0,0,1003.9,2,3,"",98
"2014-01-22 01:11:00",6.2,5.9,1.0,0.0,0,1004.0,1,1,"",98
"2014-01-22 01:12:00",6.2,5.9,1.0,0.0,0,1004.0,0,1,"",98
"2014-01-22 01:13:00",6.2,5.9,1.0,0.0,0,1003.9,1,3,"",98
"2014-01-22 01:14:00",6.2,5.9,1.2,0.0,0,1003.9,1,1,"",98
"2014-01-22 01:15:00",6.2,5.9,1.2,0.0,0,1003.9,0,1,"",98
"2014-01-22 01:16:00",6.2,5.9,1.2,0.0,0,1003.9,0,1,"",98
"2014-01-22 01:17:00",6.2,5.9,1.2,0.0,0,1003.9,1,3,"",98
"2014-01-22 01:18:00",6.2,5.9,1.4,0.0,0,1003.9,2,3,"",98
"2014-01-22 01:19:00",6.2,5.9,1.4,0.0,0,1003.9,2,3,"",98
"2014-01-22 01:20:00",6.2,5.9,1.6,0.0,0,1003.9,1,1,"",98
"2014-01-22 01:21:00",6.2,5.9,1.6,0.0,0,1003.9,0,1,"",98
"2014-01-22 01:22:00",6.2,5.9,1.6,0.0,0,1003.9,1,1,"",98
"2014-01-22 01:23:00",6.2,5.9,1.6,0.0,0,1003.8,1,1,"",98
"2014-01-22 01:24:00",6.2,5.9,1.6,0.0,0,1003.8,1,3,"",98
"2014-01-22 01:25:00",6.2,5.9,1.6,0.0,0,1003.8,1,3,"",98
"2014-01-22 01:26:00",6.2,5.9,1.8,0.0,0,1003.8,0,5,"",98
"2014-01-22 01:27:00",6.2,6.0,1.8,0.0,0,1003.8,2,5,"",99
"2014-01-22 01:28:00",6.3,6.0,1.8,0.0,0,1003.8,2,3,"",98
"2014-01-22 01:29:00",6.3,6.0,2.0,0.0,0,1003.8,1,3,"",98
"2014-01-22 01:30:00",6.3,6.0,2.0,0.0,0,1003.8,1,1,"",98
"2014-01-22 01:31:00",6.3,6.1,2.0,0.0,0,1003.8,0,1,"",99
"2014-01-22 01:32:00",6.3,6.1,2.0,0.0,0,1003.8,0,1,"",99
"2014-01-22 01:33:00",6.3,6.1,2.0,0.0,0,1003.8,1,7,"",99
"2014-01-22 01:34:00",6.3,6.1,2.2,0.0,0,1003.8,3,5,"",99
"2014-01-22 01:35:00",6.3,6.1,2.2,0.0,0,1003.8,1,1,"",99
"2014-01-22 01:36:00",6.3,6.1,2.2,0.0,0,1003.8,1,3,"",99
"2014-01-22 01:37:00",6.3,6.0,2.2,0.0,0,1003.8,1,3,"",98
"2014-01-22 01:38:00",6.3,6.1,2.2,0.0,0,1003.7,3,7,"",99
"2014-01-22 01:39:00",6.3,6.1,2.4,0.0,0,1003.7,2,1,"",99
"2014-01-22 01:40:00",6.3,6.2,2.4,0.0,0,1003.7,0,1,"",99
"2014-01-22 01:41:00",6.3,6.2,2.4,0.0,0,1003.8,1,5,"",99
"2014-01-22 01:42:00",6.3,6.2,2.4,0.0,0,1003.7,3,3,"",99
"2014-01-22 01:43:00",6.3,6.2,2.4,0.0,0,1003.7,1,3,"",99
"2014-01-22 01:44:00",6.3,6.2,2.4,0.0,0,1003.7,1,3,"",99
"2014-01-22 01:45:00",6.3,6.2,2.4,0.0,0,1003.6,1,1,"",99
"2014-01-22 01:46:00",6.3,6.2,3.2,0.0,0,1003.6,1,3,"",99
"2014-01-22 01:47:00",6.3,6.2,3.2,0.0,0,1003.6,1,1,"",99
"2014-01-22 01:48:00",6.3,6.2,3.2,0.0,0,1003.6,2,3,"",99
"2014-01-22 01:49:00",6.3,6.2,3.2,0.0,0,1003.6,1,1,"",99
"2014-01-22 01:50:00",6.3,6.2,3.2,0.0,0,1003.6,1,3,"",99
"2014-01-22 01:51:00",6.4,6.2,3.4,0.0,0,1003.6,2,3,"",99
"2014-01-22 01:52:00",6.4,6.2,3.4,0.0,0,1003.6,2,3,"",99
"2014-01-22 01:53:00",6.4,6.2,3.4,0.0,0,1003.5,0,1,"",99
"2014-01-22 01:54:00",6.4,6.2,3.6,0.0,0,1003.5,0,3,"",99
"2014-01-22 01:55:00",6.4,6.2,3.6,0.0,0,1003.5,1,3,"",99
"2014-01-22 01:56:00",6.4,6.2,3.6,0.0,0,1003.5,1,3,"",99
"2014-01-22 01:57:00",6.4,6.3,3.6,0.0,0,1003.5,1,3,"",99
"2014-01-22 01:58:00",6.4,6.2,3.6,0.0,0,1003.5,1,1,"",99
"2014-01-22 01:59:00",6.4,6.2,3.6,0.0,0,1003.4,0,1,"",99
"2014-01-22 02:00:00",6.4,6.3,3.6,0.0,0,1003.4,1,3,"",99
"2014-01-22 02:01:00",6.4,6.3,3.6,0.0,0,1003.4,1,3,"",99
"2014-01-22 02:02:00",6.4,6.3,3.6,0.0,0,1003.4,0,1,"",99
"2014-01-22 02:03:00",6.4,6.3,3.6,0.0,0,1003.4,0,1,"",99
"2014-01-22 02:04:00",6.4,6.3,3.6,0.0,0,1003.4,0,3,"",99
"2014-01-22 02:05:00",6.4,6.3,3.8,0.0,0,1003.4,2,5,"",99
"2014-01-22 02:06:00",6.4,6.3,3.8,0.0,0,1003.4,1,1,"",99
"2014-01-22 02:07:00",6.4,6.3,3.8,0.0,0,1003.4,0,1,"",99
"2014-01-22 02:08:00",6.4,6.3,3.8,0.0,0,1003.4,1,7,"",99
"2014-01-22 02:09:00",6.4,6.3,3.8,0.0,0,1003.4,2,3,"",99
"2014-01-22 02:10:00",6.4,6.3,3.8,0.0,0,1003.3,1,1,"",99
"2014-01-22 02:11:00",6.4,6.3,3.8,0.0,0,1003.4,0,0,"",99
"2014-01-22 02:12:00",6.4,6.3,4.0,0.0,0,1003.4,0,0,"",99
"2014-01-22 02:13:00",6.4,6.3,4.0,0.0,0,1003.3,0,1,"",99
"2014-01-22 02:14:00",6.4,6.3,4.0,0.0,0,1003.3,0,5,"",99
"2014-01-22 02:15:00",6.4,6.3,4.0,0.0,0,1003.3,1,3,"",99
"2014-01-22 02:16:00",6.4,6.3,4.0,0.0,0,1003.3,0,3,"",99
"2014-01-22 02:17:00",6.4,6.3,4.0,0.0,0,1003.3,1,1,"",99
"2014-01-22 02:18:00",6.4,6.3,4.0,0.0,0,1003.3,1,1,"",99
"2014-01-22 02:19:00",6.4,6.3,4.0,0.0,0,1003.3,0,0,"",99
"2014-01-22 02:20:00",6.4,6.3,4.0,0.0,0,1003.2,0,0,"",99
"2014-01-22 02:21:00",6.4,6.3,4.2,0.0,0,1003.3,0,0,"",99
"2014-01-22 02:22:00",6.4,6.3,4.2,0.0,0,1003.3,0,0,"",99
"2014-01-22 02:23:00",6.4,6.3,4.2,0.0,0,1003.3,0,1,"",99
"2014-01-22 02:24:00",6.4,6.3,4.2,0.0,0,1003.3,1,3,"",99
"2014-01-22 02:25:00",6.4,6.3,4.2,0.0,0,1003.3,1,1,"",99
"2014-01-22 02:26:00",6.4,6.3,4.2,0.0,0,1003.3,0,1,"",99
"2014-01-22 02:27:00",6.4,6.3,4.2,0.0,0,1003.3,1,1,"",99
"2014-01-22 02:28:00",6.4,6.3,4.2,0.0,0,1003.2,0,5,"",99
"2014-01-22 02:29:00",6.4,6.3,4.2,0.0,0,1003.2,2,5,"",99
"2014-01-22 02:30:00",6.4,6.3,4.4,0.0,0,1003.2,1,7,"",99
"2014-01-22 02:31:00",6.4,6.3,4.4,0.0,0,1003.2,2,5,"",99
"2014-01-22 02:32:00",6.4,6.3,4.4,0.0,0,1003.2,3,7,"",99
"2014-01-22 02:33:00",6.5,6.3,4.4,0.0,0,1003.2,2,1,"",99
"2014-01-22 02:34:00",6.5,6.3,4.4,0.0,0,1003.2,1,3,"",99
"2014-01-22 02:35:00",6.5,6.4,4.4,0.0,0,1003.2,0,1,"",99
"2014-01-22 02:36:00",6.5,6.3,4.4,0.0,0,1003.2,0,1,"",99
"2014-01-22 02:37:00",6.5,6.3,4.4,0.0,0,1003.2,1,1,"",99
"2014-01-22 02:38:00",6.5,6.4,4.4,0.0,0,1003.2,0,1,"",99
"2014-01-22 02:39:00",6.5,6.4,4.6,0.0,0,1003.2,0,1,"",99
"2014-01-22 02:40:00",6.5,6.4,4.6,0.0,0,1003.2,1,3,"",99
"2014-01-22 02:41:00",6.5,6.4,4.6,0.0,0,1003.2,1,1,"",99
"2014-01-22 02:42:00",6.5,6.4,4.6,0.0,0,1003.2,0,1,"",99
"2014-01-22 02:43:00",6.5,6.4,4.8,0.0,0,1003.2,0,1,"",99
"2014-01-22 02:44:00",6.5,6.4,4.8,0.0,0,1003.2,0,0,"",99
"2014-01-22 02:45:00",6.5,6.4,4.8,0.0,0,1003.2,0,1,"",99
"2014-01-22 02:46:00",6.5,6.4,4.8,0.0,0,1003.2,1,3,"",99
"2014-01-22 02:47:00",6.5,6.4,4.8,0.0,0,1003.2,0,1,"",99
"2014-01-22 02:48:00",6.5,6.4,4.8,0.0,0,1003.2,0,1,"",99
"2014-01-22 02:49:00",6.5,6.4,4.8,0.0,0,1003.1,0,1,"",99
"2014-01-22 02:50:00",6.5,6.4,4.8,0.0,0,1003.1,0,1,"",99
"2014-01-22 02:51:00",6.5,6.4,5.0,0.0,0,1003.1,0,3,"",99
"2014-01-22 02:52:00",6.5,6.4,5.0,0.0,0,1003.1,0,0,"",99
"2014-01-22 02:53:00",6.5,6.4,5.0,0.0,0,1003.1,1,3,"",99
"2014-01-22 02:54:00",6.5,6.4,5.0,0.0,0,1003.0,2,3,"",99
"2014-01-22 02:55:00",6.5,6.4,5.0,0.0,0,1003.0,2,3,"",99
"2014-01-22 02:56:00",6.6,6.4,5.2,0.0,0,1003.0,1,1,"",99
"2014-01-22 02:57:00",6.6,6.4,5.2,0.0,0,1003.0,0,1,"",99
"2014-01-22 02:58:00",6.6,6.4,5.2,0.0,0,1003.0,1,14,"",99
"2014-01-22 02:59:00",6.6,6.4,5.2,0.0,0,1003.0,3,7,"",99
"2014-01-22 03:00:00",6.6,6.4,5.2,0.0,0,1003.0,1,1,"",99
"2014-01-22 03:01:00",6.6,6.4,5.2,0.0,0,1003.0,1,5,"",99
"2014-01-22 03:02:00",6.6,6.4,5.4,0.0,0,1003.0,1,1,"",99
"2014-01-22 03:03:00",6.6,6.4,5.4,0.0,0,1002.9,0,3,"",99
"2014-01-22 03:04:00",6.6,6.4,5.4,0.0,0,1002.9,1,3,"",99
"2014-01-22 03:05:00",6.6,6.4,5.4,0.0,0,1002.9,2,5,"",99
"2014-01-22 03:06:00",6.6,6.4,5.6,0.0,0,1002.9,2,7,"",99
"2014-01-22 03:07:00",6.6,6.4,5.6,0.0,0,1002.9,2,3,"",99
"2014-01-22 03:08:00",6.6,6.4,5.6,0.0,0,1002.9,2,3,"",99
"2014-01-22 03:09:00",6.6,6.5,5.6,0.0,0,1002.8,1,3,"",99
"2014-01-22 03:10:00",6.6,6.5,5.6,0.0,0,1002.8,2,3,"",99
"2014-01-22 03:11:00",6.6,6.5,5.8,0.0,0,1002.8,2,3,"",99
"2014-01-22 03:12:00",6.6,6.5,5.8,0.0,0,1002.8,1,1,"",99
"2014-01-22 03:13:00",6.6,6.5,5.8,0.0,0,1002.8,1,1,"",99
"2014-01-22 03:14:00",6.6,6.5,5.8,0.0,0,1002.8,2,5,"",99
"2014-01-22 03:15:00",6.6,6.5,5.8,0.0,0,1002.8,2,3,"",99
"2014-01-22 03:16:00",6.6,6.5,5.8,0.0,0,1002.8,1,3,"",99
"2014-01-22 03:17:00",6.6,6.5,6.0,0.0,0,1002.8,1,1,"",99
"2014-01-22 03:18:00",6.6,6.5,6.0,0.0,0,1002.8,0,1,"",99
"2014-01-22 03:19:00",6.6,6.5,6.0,0.0,0,1002.8,2,7,"",99
"2014-01-22 03:20:00",6.6,6.5,6.0,0.0,0,1002.8,2,3,"",99
"2014-01-22 03:21:00",6.6,6.5,6.0,0.0,0,1002.8,2,5,"",99
"2014-01-22 03:22:00",6.6,6.5,6.0,0.0,0,1002.8,2,5,"",99
"2014-01-22 03:23:00",6.6,6.5,6.0,0.0,0,1002.8,2,3,"",99
"2014-01-22 03:24:00",6.7,6.5,6.0,0.0,0,1002.8,0,1,"",99
"2014-01-22 03:25:00",6.7,6.5,6.0,0.0,0,1002.8,0,1,"",99
"2014-01-22 03:26:00",6.7,6.5,6.0,0.0,0,1002.8,1,1,"",99
"2014-01-22 03:27:00",6.7,6.5,6.0,0.0,0,1002.8,0,1,"",99
"2014-01-22 03:28:00",6.7,6.5,6.0,0.0,0,1002.7,0,5,"",99
"2014-01-22 03:29:00",6.7,6.5,6.0,0.0,0,1002.7,2,5,"",99
"2014-01-22 03:30:00",6.7,6.5,6.0,0.0,0,1002.7,2,3,"",99
"2014-01-22 03:31:00",6.7,6.5,6.0,0.0,0,1002.8,1,3,"",99
"2014-01-22 03:32:00",6.7,6.5,6.0,0.0,0,1002.7,1,1,"",99
"2014-01-22 03:33:00",6.7,6.5,6.0,0.0,0,1002.7,0,1,"",99
"2014-01-22 03:34:00",6.7,6.5,6.0,0.0,0,1002.7,1,3,"",99
"2014-01-22 03:35:00",6.7,6.5,6.0,0.0,0,1002.7,2,5,"",99
"2014-01-22 03:36:00",6.7,6.5,6.0,0.0,0,1002.7,2,3,"",99
"2014-01-22 03:37:00",6.7,6.5,6.0,0.0,0,1002.7,1,1,"",99
"2014-01-22 03:38:00",6.7,6.5,6.0,0.0,0,1002.7,0,0,"",99
"2014-01-22 03:39:00",6.7,6.5,6.0,0.0,0,1002.7,0,0,"",99
"2014-01-22 03:40:00",6.7,6.5,6.0,0.0,0,1002.7,0,0,"",99
"2014-01-22 03:41:00",6.7,6.5,6.0,0.0,0,1002.7,0,1,"",99
"2014-01-22 03:42:00",6.7,6.5,6.0,0.0,0,1002.7,1,3,"",99
"2014-01-22 03:43:00",6.7,6.5,6.0,0.0,0,1002.7,1,1,"",99
"2014-01-22 03:44:00",6.7,6.5,6.0,0.0,0,1002.7,1,7,"",99
"2014-01-22 03:45:00",6.7,6.5,6.0,0.0,0,1002.6,2,3,"",99
"2014-01-22 03:46:00",6.7,6.5,6.0,0.0,0,1002.6,0,1,"",99
"2014-01-22 03:47:00",6.7,6.5,6.0,0.0,0,1002.6,0,1,"",99
"2014-01-22 03:48:00",6.7,6.5,6.0,0.0,0,1002.6,1,3,"",99
"2014-01-22 03:49:00",6.7,6.5,6.0,0.0,0,1002.7,0,1,"",99
"2014-01-22 03:50:00",6.7,6.5,6.0,0.0,0,1002.7,0,1,"",99
"2014-01-22 03:51:00",6.7,6.6,6.0,0.0,0,1002.7,0,7,"",99
"2014-01-22 03:52:00",6.7,6.6,6.0,0.0,0,1002.6,2,7,"",99
"2014-01-22 03:53:00",6.7,6.6,6.0,0.0,0,1002.7,1,1,"",99
"2014-01-22 03:54:00",6.7,6.6,6.0,0.0,0,1002.7,1,5,"",99
"2014-01-22 03:55:00",6.7,6.6,6.0,0.0,0,1002.7,1,1,"",99
"2014-01-22 03:56:00",6.7,6.6,6.0,0.0,0,1002.6,1,1,"",99
"2014-01-22 03:57:00",6.7,6.6,6.0,0.0,0,1002.6,1,1,"",99
"2014-01-22 03:58:00",6.7,6.6,6.0,0.0,0,1002.6,1,3,"",99
"2014-01-22 03:59:00",6.7,6.6,6.0,0.0,0,1002.6,1,3,"",99
"2014-01-22 04:00:00",6.7,6.6,6.0,0.0,0,1002.6,1,1,"",99
"2014-01-22 04:01:00",6.7,6.6,6.0,0.0,0,1002.6,1,3,"",99
"2014-01-22 04:02:00",6.7,6.6,6.0,0.0,0,1002.7,1,1,"",99
"2014-01-22 04:03:00",6.7,6.6,6.0,0.0,0,1002.7,0,0,"",99
"2014-01-22 04:04:00",6.7,6.6,6.0,0.0,0,1002.7,0,0,"",99
"2014-01-22 04:05:00",6.7,6.6,6.0,0.0,0,1002.7,0,1,"",99
"2014-01-22 04:06:00",6.7,6.6,6.2,0.0,0,1002.7,1,1,"",99
"2014-01-22 04:07:00",6.7,6.6,6.2,0.0,0,1002.7,1,1,"",99
"2014-01-22 04:08:00",6.7,6.6,6.2,0.0,0,1002.7,1,1,"",99
"2014-01-22 04:09:00",6.7,6.6,6.2,0.0,0,1002.7,0,1,"",99
"2014-01-22 04:10:00",6.7,6.6,6.2,0.0,0,1002.7,0,1,"",99
"2014-01-22 04:11:00",6.7,6.6,6.2,0.0,0,1002.7,0,3,"",99
"2014-01-22 04:12:00",6.8,6.6,6.2,0.0,0,1002.7,1,1,"",99
"2014-01-22 04:13:00",6.8,6.6,6.2,0.0,0,1002.7,0,1,"",99
"2014-01-22 04:14:00",6.8,6.6,6.2,0.0,0,1002.6,0,0,"",99
"2014-01-22 04:15:00",6.8,6.6,6.2,0.0,0,1002.6,0,1,"",99
"2014-01-22 04:16:00",6.8,6.6,6.2,0.0,0,1002.6,0,0,"",99
"2014-01-22 04:17:00",6.8,6.6,6.2,0.0,0,1002.6,0,1,"",99
"2014-01-22 04:18:00",6.8,6.6,6.2,0.0,0,1002.6,0,0,"",99
"2014-01-22 04:19:00",6.8,6.6,6.2,0.0,0,1002.6,0,1,"",99
"2014-01-22 04:20:00",6.8,6.6,6.2,0.0,0,1002.6,0,1,"",99
"2014-01-22 04:21:00",6.8,6.6,6.2,0.0,0,1002.6,0,0,"",99
"2014-01-22 04:22:00",6.8,6.6,6.2,0.0,0,1002.6,0,1,"",99
"2014-01-22 04:23:00",6.8,6.6,6.2,0.0,0,1002.6,0,1,"",99
"2014-01-22 04:24:00",6.8,6.6,6.2,0.0,0,1002.6,1,1,"",99
"2014-01-22 04:25:00",6.8,6.6,6.2,0.0,0,1002.6,0,1,"",99
"2014-01-22 04:26:00",6.8,6.6,6.2,0.0,0,1002.5,0,1,"",99
"2014-01-22 04:27:00",6.8,6.6,6.2,0.0,0,1002.5,0,0,"",99
"2014-01-22 04:28:00",6.8,6.6,6.2,0.0,0,1002.5,0,0,"",99
"2014-01-22 04:29:00",6.8,6.6,6.2,0.0,0,1002.5,0,0,"",99
"2014-01-22 04:30:00",6.8,6.6,6.2,0.0,0,1002.5,0,0,"",99
"2014-01-22 04:31:00",6.8,6.6,6.2,0.0,0,1002.4,0,0,"",99
"2014-01-22 04:32:00",6.8,6.6,6.2,0.0,0,1002.4,0,1,"",99
"2014-01-22 04:33:00",6.8,6.6,6.2,0.0,0,1002.4,1,1,"",99
"2014-01-22 04:34:00",6.7,6.6,6.2,0.0,0,1002.3,0,1,"",99
"2014-01-22 04:35:00",6.7,6.6,6.2,0.0,0,1002.3,1,1,"",99
"2014-01-22 04:36:00",6.7,6.6,6.2,0.0,0,1002.3,1,1,"",99
"2014-01-22 04:37:00",6.7,6.6,6.2,0.0,0,1002.3,0,0,"",99
"2014-01-22 04:38:00",6.7,6.6,6.2,0.0,0,1002.3,0,0,"",99
"2014-01-22 04:39:00",6.7,6.6,6.2,0.0,0,1002.3,0,0,"",99
"2014-01-22 04:40:00",6.7,6.6,6.2,0.0,0,1002.3,0,0,"",99
"2014-01-22 04:41:00",6.7,6.6,6.2,0.0,0,1002.3,0,0,"",99
"2014-01-22 04:42:00",6.7,6.6,6.2,0.0,0,1002.3,0,0,"",99
"2014-01-22 04:43:00",6.7,6.6,6.2,0.0,0,1002.3,0,1,"",99
"2014-01-22 04:44:00",6.7,6.6,6.2,0.0,0,1002.4,0,0,"",99
"2014-01-22 04:45:00",6.7,6.6,6.2,0.0,0,1002.4,0,0,"",99
"2014-01-22 04:46:00",6.7,6.6,6.2,0.0,0,1002.3,0,0,"",99
"2014-01-22 04:47:00",6.7,6.6,6.2,0.0,0,1002.4,0,0,"",99
"2014-01-22 04:48:00",6.7,6.6,6.2,0.0,0,1002.4,0,1,"",99
"2014-01-22 04:49:00",6.7,6.6,6.2,0.0,0,1002.4,0,1,"",99
"2014-01-22 04:50:00",6.7,6.6,6.2,0.0,0,1002.4,0,0,"",99
"2014-01-22 04:51:00",6.7,6.6,6.2,0.0,0,1002.4,0,0,"",99
"2014-01-22 04:52:00",6.7,6.6,6.2,0.0,0,1002.4,0,0,"",99
"2014-01-22 04:53:00",6.7,6.6,6.2,0.0,0,1002.4,0,0,"",99
"2014-01-22 04:54:00",6.8,6.6,6.2,0.0,0,1002.4,0,0,"",99
"2014-01-22 04:55:00",6.8,6.6,6.2,0.0,0,1002.4,0,0,"",99
"2014-01-22 04:56:00",6.8,6.6,6.2,0.0,0,1002.4,0,0,"",99
"2014-01-22 04:57:00",6.8,6.6,6.2,0.0,0,1002.4,0,0,"",99
"2014-01-22 04:58:00",6.8,6.6,6.2,0.0,0,1002.4,0,0,"",99
"2014-01-22 04:59:00",6.8,6.6,6.2,0.0,0,1002.4,0,0,"",99
"2014-01-22 05:00:00",6.8,6.6,6.2,0.0,0,1002.4,0,0,"",99
"2014-01-22 05:01:00",6.8,6.6,6.4,0.0,0,1002.5,0,0,"",99
"2014-01-22 05:02:00",6.8,6.6,6.4,0.0,0,1002.5,0,0,"",99
"2014-01-22 05:03:00",6.8,6.6,6.4,0.0,0,1002.5,0,0,"",99
"2014-01-22 05:04:00",6.8,6.6,6.4,0.0,0,1002.5,0,0,"",99
"2014-01-22 05:05:00",6.8,6.6,6.4,0.0,0,1002.5,0,0,"",99
"2014-01-22 05:06:00",6.8,6.6,6.4,0.0,0,1002.5,0,0,"",99
"2014-01-22 05:07:00",6.8,6.6,6.4,0.0,0,1002.5,0,0,"",99
"2014-01-22 05:08:00",6.8,6.6,6.4,0.0,0,1002.6,0,0,"",99
"2014-01-22 05:09:00",6.8,6.6,6.4,0.0,0,1002.6,0,0,"",99
"2014-01-22 05:10:00",6.8,6.6,6.4,0.0,0,1002.6,0,0,"",99
"2014-01-22 05:11:00",6.8,6.6,6.4,0.0,0,1002.6,0,0,"",99
"2014-01-22 05:12:00",6.8,6.6,6.4,0.0,0,1002.5,0,0,"",99
"2014-01-22 05:13:00",6.8,6.6,6.4,0.0,0,1002.5,0,1,"",99
"2014-01-22 05:14:00",6.8,6.6,6.4,0.0,0,1002.5,0,0,"",99
"2014-01-22 05:15:00",6.7,6.6,6.4,0.0,0,1002.6,0,0,"",99
"2014-01-22 05:16:00",6.8,6.6,6.4,0.0,0,1002.5,0,1,"",99
"2014-01-22 05:17:00",6.7,6.6,6.4,0.0,0,1002.5,1,1,"",99
"2014-01-22 05:18:00",6.7,6.6,6.4,0.0,0,1002.6,1,1,"",99
"2014-01-22 05:19:00",6.7,6.6,6.4,0.0,0,1002.5,1,1,"",99
"2014-01-22 05:20:00",6.7,6.6,6.4,0.0,0,1002.5,1,1,"",99
"2014-01-22 05:21:00",6.7,6.6,6.4,0.0,0,1002.5,0,0,"",99
"2014-01-22 05:22:00",6.7,6.6,6.4,0.0,0,1002.5,0,1,"",99
"2014-01-22 05:23:00",6.7,6.6,6.4,0.0,0,1002.5,0,0,"",99
"2014-01-22 05:24:00",6.7,6.6,6.4,0.0,0,1002.5,0,0,"",99
"2014-01-22 05:25:00",6.7,6.6,6.4,0.0,0,1002.5,0,1,"",99
"2014-01-22 05:26:00",6.7,6.6,6.4,0.0,0,1002.5,0,1,"",99
"2014-01-22 05:27:00",6.7,6.5,6.4,0.0,0,1002.6,0,0,"",99
"2014-01-22 05:28:00",6.7,6.5,6.4,0.0,0,1002.6,0,3,"",99
"2014-01-22 05:29:00",6.7,6.5,6.4,0.0,0,1002.6,1,1,"",99
"2014-01-22 05:30:00",6.7,6.5,6.4,0.0,0,1002.6,0,0,"",99
"2014-01-22 05:31:00",6.7,6.5,6.4,0.0,0,1002.6,0,0,"",99
"2014-01-22 05:32:00",6.7,6.5,6.4,0.0,0,1002.6,0,0,"",99
"2014-01-22 05:33:00",6.7,6.5,6.4,0.0,0,1002.6,0,1,"",99
"2014-01-22 05:34:00",6.7,6.5,6.4,0.0,0,1002.6,0,0,"",99
"2014-01-22 05:35:00",6.7,6.5,6.4,0.0,0,1002.5,0,1,"",99
"2014-01-22 05:36:00",6.7,6.5,6.4,0.0,0,1002.6,0,1,"",99
"2014-01-22 05:37:00",6.6,6.5,6.4,0.0,0,1002.6,0,1,"",99
"2014-01-22 05:38:00",6.6,6.5,6.4,0.0,0,1002.6,0,1,"",99
"2014-01-22 05:39:00",6.6,6.5,6.4,0.0,0,1002.6,0,1,"",99
"2014-01-22 05:40:00",6.6,6.5,6.4,0.0,0,1002.6,0,0,"",99
"2014-01-22 05:41:00",6.6,6.5,6.4,0.0,0,1002.6,0,1,"",99
"2014-01-22 05:42:00",6.6,6.5,6.4,0.0,0,1002.7,0,0,"",99
"2014-01-22 05:43:00",6.6,6.5,6.4,0.0,0,1002.7,0,0,"",99
"2014-01-22 05:44:00",6.6,6.5,6.4,0.0,0,1002.7,0,0,"",99
"2014-01-22 05:45:00",6.6,6.5,6.4,0.0,0,1002.7,0,0,"",99
"2014-01-22 05:46:00",6.6,6.5,6.4,0.0,0,1002.7,0,0,"",99
"2014-01-22 05:47:00",6.6,6.4,6.4,0.0,0,1002.6,0,0,"",99
"2014-01-22 05:48:00",6.6,6.5,6.4,0.0,0,1002.6,0,0,"",99
"2014-01-22 05:49:00",6.6,6.4,6.4,0.0,0,1002.7,0,0,"",99
"2014-01-22 05:50:00",6.6,6.4,6.4,0.0,0,1002.7,0,0,"",99
"2014-01-22 05:51:00",6.6,6.4,6.4,0.0,0,1002.7,0,0,"",99
"2014-01-22 05:52:00",6.6,6.4,6.4,0.0,0,1002.7,0,0,"",99
"2014-01-22 05:53:00",6.6,6.4,6.4,0.0,0,1002.7,0,0,"",99
"2014-01-22 05:54:00",6.6,6.4,6.4,0.0,0,1002.7,0,0,"",99
"2014-01-22 05:55:00",6.6,6.4,6.4,0.0,0,1002.6,0,0,"",99
"2014-01-22 05:56:00",6.6,6.4,6.4,0.0,0,1002.6,0,0,"",99
"2014-01-22 05:57:00",6.6,6.4,6.4,0.0,0,1002.7,0,0,"",99
"2014-01-22 05:58:00",6.6,6.4,6.4,0.0,0,1002.7,0,0,"",99
"2014-01-22 05:59:00",6.6,6.4,6.4,0.0,0,1002.7,0,0,"",99
"2014-01-22 06:00:00",6.6,6.4,6.4,0.0,0,1002.7,0,0,"",99
"2014-01-22 06:01:00",6.6,6.4,6.4,0.0,0,1002.7,0,0,"",99
"2014-01-22 06:02:00",6.6,6.4,6.4,0.0,0,1002.8,0,0,"",99
"2014-01-22 06:03:00",6.6,6.4,6.4,0.0,0,1002.8,0,0,"",99
"2014-01-22 06:04:00",6.6,6.4,6.4,0.0,0,1002.8,0,0,"",99
"2014-01-22 06:05:00",6.6,6.4,6.4,0.0,0,1002.8,0,0,"",99
"2014-01-22 06:06:00",6.6,6.4,6.4,0.0,0,1002.8,0,0,"",99
"2014-01-22 06:07:00",6.6,6.4,6.4,0.0,0,1002.8,0,0,"",99
"2014-01-22 06:08:00",6.5,6.4,6.4,0.0,0,1002.8,0,0,"",99
"2014-01-22 06:09:00",6.5,6.4,6.4,0.0,0,1002.8,0,0,"",99
"2014-01-22 06:10:00",6.5,6.4,6.4,0.0,0,1002.8,0,0,"",99
"2014-01-22 06:11:00",6.5,6.4,6.4,0.0,0,1002.8,0,0,"",99
"2014-01-22 06:12:00",6.5,6.4,6.4,0.0,0,1002.8,0,0,"",99
"2014-01-22 06:13:00",6.5,6.4,6.4,0.0,0,1002.8,0,0,"",99
"2014-01-22 06:14:00",6.5,6.4,6.4,0.0,0,1002.8,0,0,"",99
"2014-01-22 06:15:00",6.5,6.4,6.4,0.0,0,1002.8,0,0,"",99
"2014-01-22 06:16:00",6.5,6.4,6.4,0.0,0,1002.8,0,0,"",99
"2014-01-22 06:17:00",6.5,6.4,6.4,0.0,0,1002.8,0,0,"",99
"2014-01-22 06:18:00",6.5,6.4,6.4,0.0,0,1002.9,0,0,"",99
"2014-01-22 06:19:00",6.5,6.4,6.4,0.0,0,1002.9,0,0,"",99
"2014-01-22 06:20:00",6.5,6.3,6.4,0.0,0,1002.9,0,0,"",99
"2014-01-22 06:21:00",6.5,6.3,6.4,0.0,0,1003.0,0,0,"",99
"2014-01-22 06:22:00",6.5,6.3,6.4,0.0,0,1003.0,0,0,"",99
"2014-01-22 06:23:00",6.5,6.3,6.4,0.0,0,1003.1,0,0,"",99
"2014-01-22 06:24:00",6.4,6.3,6.4,0.0,0,1003.1,0,0,"",99
"2014-01-22 06:25:00",6.4,6.3,6.4,0.0,0,1003.1,0,0,"",99
"2014-01-22 06:26:00",6.4,6.3,6.4,0.0,0,1003.1,0,0,"",99
"2014-01-22 06:27:00",6.4,6.3,6.4,0.0,0,1003.2,0,0,"",99
"2014-01-22 06:28:00",6.4,6.3,6.4,0.0,0,1003.2,0,0,"",99
"2014-01-22 06:29:00",6.4,6.3,6.4,0.0,0,1003.2,0,0,"",99
"2014-01-22 06:30:00",6.4,6.3,6.4,0.0,0,1003.2,0,1,"",99
"2014-01-22 06:31:00",6.4,6.3,6.4,0.0,0,1003.2,0,1,"",99
"2014-01-22 06:32:00",6.4,6.3,6.4,0.0,0,1003.2,1,1,"",99
"2014-01-22 06:33:00",6.4,6.3,6.4,0.0,0,1003.2,0,1,"",99
"2014-01-22 06:34:00",6.4,6.2,6.4,0.0,0,1003.2,0,0,"",99
"2014-01-22 06:35:00",6.4,6.2,6.4,0.0,0,1003.1,0,1,"",99
"2014-01-22 06:36:00",6.4,6.2,6.4,0.0,0,1003.1,0,0,"",99
"2014-01-22 06:37:00",6.4,6.2,6.4,0.0,0,1003.1,0,0,"",99
"2014-01-22 06:38:00",6.4,6.2,6.4,0.0,0,1003.1,0,0,"",99
"2014-01-22 06:39:00",6.4,6.2,6.4,0.0,0,1003.2,0,0,"",99
"2014-01-22 06:40:00",6.4,6.2,6.4,0.0,0,1003.2,0,0,"",99
"2014-01-22 06:41:00",6.4,6.2,6.4,0.0,0,1003.1,0,0,"",99
"2014-01-22 06:42:00",6.4,6.2,6.4,0.0,0,1003.2,0,0,"",99
"2014-01-22 06:43:00",6.4,6.2,6.4,0.0,0,1003.2,0,0,"",99
"2014-01-22 06:44:00",6.4,6.2,6.4,0.0,0,1003.2,0,0,"",99
"2014-01-22 06:45:00",6.4,6.2,6.4,0.0,0,1003.2,0,0,"",99
"2014-01-22 06:46:00",6.4,6.2,6.4,0.0,0,1003.2,0,0,"",99
"2014-01-22 06:47:00",6.4,6.2,6.4,0.0,0,1003.2,0,0,"",99
"2014-01-22 06:48:00",6.4,6.2,6.4,0.0,0,1003.2,0,0,"",99
"2014-01-22 06:49:00",6.3,6.2,6.4,0.0,0,1003.3,0,0,"",99
"2014-01-22 06:50:00",6.3,6.2,6.4,0.0,0,1003.2,0,0,"",99
"2014-01-22 06:51:00",6.3,6.2,6.4,0.0,0,1003.2,0,0,"",99
"2014-01-22 06:52:00",6.3,6.2,6.4,0.0,0,1003.2,0,0,"",99
"2014-01-22 06:53:00",6.3,6.2,6.4,0.0,0,1003.2,0,0,"",99
"2014-01-22 06:54:00",6.3,6.2,6.4,0.0,0,1003.3,0,0,"",99
"2014-01-22 06:55:00",6.3,6.2,6.4,0.0,0,1003.3,0,0,"",99
"2014-01-22 06:56:00",6.3,6.2,6.4,0.0,0,1003.3,0,0,"",99
"2014-01-22 06:57:00",6.3,6.2,6.4,0.0,0,1003.3,0,0,"",99
"2014-01-22 06:58:00",6.3,6.2,6.4,0.0,0,1003.4,0,0,"",99